Welcome to the New NWS' Forecast!
Most changes are behind the scenes, but click here for differences you might notice.
Latest weather observations around

Demopolis Municipal Airport (KDYA)

Using English Units (Switch to International System of Units)
Date/ Time (CST) Wind (mph) Vis. (mi) Weather Sky Cond. Temp (°F) Rel. Humidity Wind Chill (°F) Heat Index (°F) Pressure Precip. (in)
Air Dwpt 6 hour Altimeter (inHg) Sea level (inHg) 1 hr 3 hr 6 hr
Max Min
Jan 21 23:55 Calm 10 Clear   55 43     64%     30.06        
Jan 21 23:35 SE 3 10 Clear   56 43     61%     30.07        
Jan 21 23:15 SSE 3 10 Clear   58 43     57%     30.08        
Jan 21 22:55 SSE 5 10 Clear   59 43     56%     30.08        
Jan 21 22:35 SSE 6 10 Clear   59 44     57%     30.09        
Jan 21 22:15 SSE 5 10 Clear   59 44     56%     30.09        
Jan 21 21:55 SE 6 10 Clear   59 44     56%     30.09        
Jan 21 21:35 SE 5 10 Clear   59 44     56%     30.09        
Jan 21 21:15 SE 3 10 Clear   60 44     55%     30.09        
Jan 21 20:55 SSE 5 10 Clear   60 44     54%     30.09        
Jan 21 20:35 SE 6 10 Clear   62 44     51%     30.08        
Jan 21 20:15 ESE 5 10 Clear   61 44     54%     30.09        
Jan 21 19:55 SE 5 10 Clear   60 44     54%     30.09        
Jan 21 19:35 ESE 5 10 Clear   58 44     59%     30.08        
Jan 21 19:15 ESE 5 10 Clear   55 44     66%     30.09        
Jan 21 18:55 Calm 10 Clear   55 45     67%     30.11        
Jan 21 18:35 ESE 3 10 Clear   55 44     67%     30.09        
Jan 21 18:15 ESE 3 10 Clear   57 44     62%     30.09        
Jan 21 17:55 ESE 3 10 Clear   60 44     55%     30.1        
Jan 21 17:35 Calm 10 Clear   64 43     47%     30.1        
Jan 21 17:15 ESE 3 10 Clear   68 43     39%     30.09        
Jan 21 16:55 SE 6 10 Clear   70 42     36%   69 30.09        
Jan 21 16:35 SE 8 10 Clear   72 41     33%   70 30.09        
Jan 21 16:15 SE 7 10 Clear   73 41     32%   71 30.1        
Jan 21 15:55 SSE 6 10 Clear   73 41     31%   72 30.1        
Jan 21 15:35 SE 8 10 Clear   74 41     31%   72 30.09        
Jan 21 15:15 SSE 7 10 Clear   74 41     30%   73 30.09        
Jan 21 14:55 SE 8 10 Clear   74 42     31%   73 30.1        
Jan 21 14:35 S 7 10 Clear   74 41     30%   72 30.1        
Jan 21 14:15 ESE 6 10 Clear   73 42     32%   72 30.11        
Jan 21 13:55 S 7 10 Clear   73 42     32%   72 30.12        
Jan 21 13:35 SSE 5 10 Clear   72 41     32%   71 30.13        
Jan 21 13:15 SSE 6 10 Clear   72 42     33%   70 30.14        
Jan 21 12:55 ESE 8 10 Clear   71 42     35%   70 30.15        
Jan 21 12:35 SE 6 10 Clear   70 43     37%   69 30.16        
Jan 21 12:15 SE 8 10 Clear   69 45     43%     30.18        
Jan 21 11:55 SSE 7 10 Clear   67 45     45%     30.19        
Jan 21 11:35 S 9 10 Clear   66 45     47%     30.21        
Jan 21 11:15 S 8 10 Clear   65 45     50%     30.22        
Jan 21 10:55 S 3 10 Clear   63 46     53%     30.23        
Jan 21 10:35 SSE 7 10 Clear   62 47     56%     30.24        
Notice The following observation data may not be complete
Jan 21 10:15   10 Clear            %              
Jan 21 09:55 Calm 10 Clear   57 44     62%     30.25        
Jan 21 09:35 Calm 10 Clear   54 43     66%     30.25        
Jan 21 09:15 Calm 10 Clear   50 42     73%     30.26        
Jan 21 08:55 Calm 10 Clear   47 41     80%     30.25        
Jan 21 08:35 Calm 10 Clear   43 39     87%     30.24        
Jan 21 08:15 Calm 10 Clear   38 36     91%     30.23        
Jan 21 07:55 Calm 10 Clear   36 34     94%     30.23        
Jan 21 07:35 Calm 10 Clear   34 33     94%     30.22        
Jan 21 07:15 Calm 10 Clear   33 32     94%     30.22        
Jan 21 06:55 Calm 10 Clear   33 32     94%     30.22        
Jan 21 06:35 Calm 10 Clear   34 33     94%     30.22        
Jan 21 06:15 Calm 10 Clear   34 32     94%     30.22        
Jan 21 05:55 Calm 10 Clear   34 33     94%     30.21        
Jan 21 05:35 Calm 10 Clear   35 33     93%     30.21        
Jan 21 05:15 Calm 10 Clear   35 33     93%     30.2        
Jan 21 04:55 Calm 10 Clear   35 33     93%     30.2        
Jan 21 04:35 Calm 10 Clear   36 34     92%     30.2        
Jan 21 04:15 Calm 10 Clear   36 34     93%     30.2        
Jan 21 03:55 Calm 10 Clear   36 34     91%     30.2        
Jan 21 03:35 Calm 10 Clear   37 35     92%     30.21        
Jan 21 03:15 Calm 10 Clear   38 35     90%     30.21        
Jan 21 02:55 Calm 10 Clear   38 35     89%     30.2        
Jan 21 02:35 Calm 10 Clear   38 36     90%     30.21        
Jan 21 02:15 Calm 10 Clear   38 36     90%     30.21        
Jan 21 01:55 WSW 3 10 Clear   39 36     91% 37   30.21        
Jan 21 01:35 Calm 10 Clear   38 35     90%     30.2        
Jan 21 01:15 Calm 10 Clear   38 36     90%     30.2        
Jan 21 00:55 Calm 10 Clear   39 36     87%     30.21        
Jan 21 00:35 Calm 10 Clear   40 37     87%     30.22        
Jan 21 00:15 Calm 10 Clear   41 37     84%     30.22        
Jan 20 23:55 Calm 10 Clear   41 36     82%     30.22        
Jan 20 23:35 Calm 10 Clear   42 36     80%     30.22        
Jan 20 23:15 Calm 10 Clear   44 38     77%     30.22        
Jan 20 22:55 Calm 10 Clear   42 36     80%     30.23        
Jan 20 22:35 Calm 10 Clear   43 38     83%     30.23        
Jan 20 22:15 Calm 10 Clear   43 37     81%     30.23        
Jan 20 21:55 Calm 10 Clear   44 37     78%     30.23        
Jan 20 21:35 SE 3 10 Clear   50 38     65% 49   30.24        
Jan 20 21:15 SE 3 10 Clear   47 38     72% 45   30.23        
Jan 20 20:55 SE 3 10 Clear   45 38     74% 44   30.23        
Jan 20 20:35 ESE 3 10 Clear   46 38     73% 45   30.23        
Jan 20 20:15 SE 3 10 Clear   46 38     74% 45   30.23        
Jan 20 19:55 Calm 10 Clear   47 38     71%     30.23        
Notice The following observation data may not be complete
Jan 20 19:35 ESE 3 10 Clear     38      %     30.23        
Notice The following observation data may not be complete
Jan 20 19:15 SE 5 10 Clear     38      %     30.23        
Jan 20 18:55 ESE 3 10 Clear   49 39     69% 48   30.22        
Notice The following observation data may not be complete
Jan 20 18:35 SE 3 10 Clear     39      %     30.22        
Jan 20 18:15 Calm 10 Clear   52 39     62%     30.22        
Jan 20 17:55 Calm 10 Clear   54 40     58%     30.22        
Jan 20 17:35 Calm 10 Clear   59 38     45%     30.22        
Jan 20 17:15 Calm 10 Clear   61 38     42%     30.21        
Jan 20 16:55 SSE 3 10 Clear   64 37     36%     30.21        
Jan 20 16:35 S 5 10 Clear   65 37     35%     30.21        
Jan 20 16:15 S 7 10 Clear   66 36     34%     30.21        
Jan 20 15:55 SSE 6 10 Clear   66 36     33%     30.2        
Jan 20 15:35 S 3 10 Clear   66 36     32%     30.2        
Jan 20 15:15 S 7 10 Clear   66 35     32%     30.2        
Jan 20 14:55 S 7 10 Clear   66 33     29%     30.2        
Jan 20 14:35 SE 10 10 Clear   65 33     29%     30.2        
Jan 20 14:15 S 8 10 Clear   65 33     30%     30.21        
Jan 20 13:55 SE 10 10 Clear   65 33     31%     30.21        
Jan 20 13:35 S 11 10 Clear   63 34     33%     30.23        
Jan 20 13:15 S 6 10 Clear   63 34     34%     30.24        
Jan 20 12:55 SSE 10 10 Clear   63 33     33%     30.25        
Jan 20 12:35 SSW 8 10 Clear   62 34     35%     30.26        
Jan 20 12:15 SSW 9 10 Clear   63 33     32%     30.27        
Jan 20 11:55 S 7 10 Clear   63 32     31%     30.28        
Jan 20 11:35 S 7 10 Clear   61 30     31%     30.29        
Jan 20 11:15 SSW 8 10 Clear   59 29     31%     30.3        
Jan 20 10:55 S 11 10 Clear   57 28     32%     30.31        
Jan 20 10:35 SSE 7 10 Clear   57 26     30%     30.31        
Jan 20 10:15 SSE 6 10 Clear   54 24     32%     30.31        
Jan 20 09:55 SSE 5 10 Clear   49 25     40% 47   30.31        
Jan 20 09:35 SE 5 10 Clear   47 26     43% 45   30.31        
Jan 20 09:15 SE 5 10 Clear   45 26     47% 43   30.31        
Jan 20 08:55 Calm 10 Clear   44 27     51%     30.31        
Jan 20 08:35 Calm 10 Clear   42 28     57%     30.3        
Jan 20 08:15 Calm 10 Clear   40 30     67%     30.3        
Jan 20 07:55 Calm 10 Clear   39 31     73%     30.29        
Jan 20 07:35 Calm 10 Clear   37 30     74%     30.29        
Jan 20 07:15 Calm 10 Clear   36 29     77%     30.29        
Jan 20 06:55 Calm 10 Clear   33 28     81%     30.29        
Jan 20 06:35 Calm 10 Clear   35 28     76%     30.28        
Jan 20 06:15 Calm 10 Clear   36 27     72%     30.28        
Jan 20 05:55 Calm 10 Clear   38 28     68%     30.27        
Jan 20 05:15 Calm 10 Clear   38 29     67%     30.25        
Jan 20 04:55 Calm 10 Clear   43 24     47%     30.25        
Jan 20 04:35 SSE 3 10 Clear   42 27     55% 41   30.26        
Jan 20 04:15 Calm 10 Clear   42 32     68%     30.26        
Jan 20 03:55 Calm 10 Clear   42 31     64%     30.26        
Jan 20 03:35 Calm 10 Clear   43 29     57%     30.27        
Jan 20 03:15 Calm 10 Clear   42 31     63%     30.26        
Jan 20 02:55 Calm 10 Clear   42 31     65%     30.27        
Jan 20 02:35 Calm 10 Clear   43 31     62%     30.26        
Jan 20 02:15 Calm 10 Clear   43 30     60%     30.26        
Jan 20 01:55 Calm 10 Clear   44 27     51%     30.26        
Jan 20 01:35 Calm 10 Clear   44 28     53%     30.27        
Jan 20 01:15 Calm 10 Clear   44 31     61%     30.27        
Jan 20 00:55 Calm 10 Clear   44 28     53%     30.26        
Jan 20 00:35 Calm 10 Clear   44 27     50%     30.26        
Jan 20 00:15 Calm 10 Clear   43 31     63%     30.26        
Jan 19 23:55 Calm 10 Clear   43 32     65%     30.27        
Jan 19 23:35 Calm 10 Clear   44 31     60%     30.27        
Jan 19 23:15 WSW 3 10 Clear   44 30     59% 42   30.27        
Jan 19 22:55 Calm 10 Clear   44 27     52%     30.27        
Jan 19 22:35 Calm 10 Clear   43 31     63%     30.27        
Jan 19 22:15 Calm 10 Clear   43 30     60%     30.27        
Jan 19 21:55 Calm 10 Clear   43 29     58%     30.28        
Jan 19 21:35 Calm 10 Clear   43 30     60%     30.28        
Jan 19 21:15 Calm 10 Clear   43 31     61%     30.28        
Jan 19 20:55 Calm 10 Clear   43 31     61%     30.27        
Jan 19 20:35 Calm 10 Clear   43 31     62%     30.27        
Jan 19 20:15 Calm 10 Clear   43 27     54%     30.27        
Jan 19 19:55 Calm 10 Clear   44 29     55%     30.28        
Jan 19 19:35 Calm 10 Clear   45 29     53%     30.27        
Jan 19 19:15 Calm 10 Clear   45 27     49%     30.27        
Jan 19 18:55 Calm 10 Clear   45 28     52%     30.27        
Jan 19 18:35 Calm 10 Clear   45 28     53%     30.27        
Jan 19 18:15 Calm 10 Clear   46 27     48%     30.27        
Jan 19 17:55 Calm 10 Clear   46 26     45%     30.27        
Jan 19 17:35 Calm 10 Clear   47 25     41%     30.27        
Jan 19 17:15 Calm 10 Clear   49 23     35%     30.27        
Jan 19 16:55 Calm 10 Clear   51 21     30%     30.28        
Jan 19 16:35 Calm 10 Clear   51 17     25%     30.28        
Jan 19 16:15 SW 3 10 Clear   52 17     25%     30.28        
Jan 19 15:55 S 5 10 Clear   52 15     23%     30.28        
Jan 19 15:35 SSE 3 10 Clear   52 15     23%     30.28        
Jan 19 15:15 SSE 5 10 Clear   52 14     22%     30.29        
Jan 19 14:55 SSE 3 10 Clear   51 14     22%     30.29        
Jan 19 14:35 SW 3 10 Clear   51 13     22%     30.29        
Jan 19 14:15 Calm 10 Clear   52 11     20%     30.3        
Jan 19 13:55 SW 8 10 Clear   51 11     20%     30.3        
Jan 19 13:35 Calm 10 Clear   52 12     20%     30.3        
Jan 19 13:15 Calm 10 Clear   52 12     20%     30.31        
Jan 19 12:55 E 5 10 Clear   51 12     20%     30.32        
Jan 19 12:35 Calm 10 Clear   49 8     19%     30.34        
Jan 19 12:15 Calm 10 Clear   48 13     25%     30.35        
Jan 19 11:55 Calm 10 Clear   46 14     27%     30.37        
Jan 19 11:35 SW 3 10 Clear   45 14     29% 43   30.38        
Jan 19 11:15 WSW 3 10 Clear   44 15     31% 42   30.4        
Jan 19 10:55 Calm 10 Clear   41 17     36%     30.4        
Jan 19 10:35 Calm 10 Clear   40 18     41%     30.41        
Jan 19 10:15 Calm 10 Clear   38 20     49%     30.41        
Jan 19 09:35 Calm 10 Clear   32 22     65%     30.41        
Jan 19 09:15 Calm 10 Clear   30 23     76%     30.42        
Jan 19 08:55 Calm 10 Clear   27 22     80%     30.41        
Jan 19 08:35 Calm 10 Clear   25 21     85%     30.41        
Jan 19 08:15 Calm 10 Clear   22 19     90%     30.4        
Jan 19 07:55 Calm 10 Clear   18 16     90%     30.4        
Jan 19 07:35 Calm 10 Clear   16 14     90%     30.39        
Jan 19 07:15 Calm 10 Clear   15 13     90%     30.4        
Jan 19 06:55 Calm 10 Clear   15 13     90%     30.39        
Jan 19 06:35 Calm 10 Clear   15 13     90%     30.39        
Jan 19 06:15 Calm 10 Clear   16 13     90%     30.38        
Jan 19 05:55 Calm 10 Clear   16 13     90%     30.38        
Jan 19 05:35 Calm 10 Clear   16 13     90%     30.38        
Jan 19 05:15 Calm 10 Clear   17 14     90%     30.38        
Jan 19 04:55 Calm 10 Clear   16 14     91%     30.38        
Jan 19 04:35 Calm 10 Clear   16 14     90%     30.38        
Jan 19 04:15 Calm 10 Clear   16 14     91%     30.38        
Jan 19 03:55 Calm 10 Clear   17 15     91%     30.38        
Jan 19 03:35 Calm 10 Clear   17 15     90%     30.38        
Jan 19 03:15 Calm 10 Clear   17 15     90%     30.39        
Jan 19 02:55 Calm 10 Clear   18 16     91%     30.4        
Jan 19 02:35 Calm 10 Clear   18 15     91%     30.4        
Jan 19 02:15 Calm 10 Clear   18 15     91%     30.4        
Jan 19 01:55 Calm 10 Clear   18 15     90%     30.4        
Jan 19 01:35 Calm 10 Clear   18 16     91%     30.41        
Jan 19 01:15 Calm 10 Clear   18 16     90%     30.41        
Jan 19 00:55 Calm 10 Clear   19 17     90%     30.41        
Jan 19 00:35 Calm 10 Clear   19 16     88%     30.41        
Jun 11 23:15 SE 5 10 Clear   74 74     100%   76 30.1        
Notice The following observation data may not be complete
Jun 11 20:35   10 Clear            %              
Jun 11 20:15 N 3 10 Clear   74 74     100%   76 30.06        
Notice The following observation data may not be complete
Jun 11 19:35   10 Clear            %              
Jun 11 13:55 S 3 10 Clear   89 65     44%   91 30.09        
Notice The following observation data may not be complete
Jun 11 05:15   10 Clear            %              
Jun 11 02:15 Calm 10 Clear   67 66     99%     30.04        
Jun 11 00:35 Calm 10 Clear   67 66     96%     30.05        
Jun 10 22:15 Calm 10 Clear   71 67     87%   71 30.05        
Notice The following observation data may not be complete
Jun 10 20:35 Calm 10 Clear     66      %     30.01        
Jun 10 17:55 SE 6 10 Clear   87 60     40%   87 29.99        
Notice The following observation data may not be complete
Jun 10 15:15   10 Clear            %              
Jun 10 12:35 SSE 8 10 Clear   85 60     44%   85 30.06        
Notice The following observation data may not be complete
Jun 10 11:15   10 Clear            %              
Jun 10 07:35 Calm 10 Clear   67 65     93%     30.03        
Notice The following observation data may not be complete
Jun 10 03:55 Calm 10 Clear            %     29.98        
Jun 09 22:35 Calm 10 Clear   65 64     98%     29.97        
Jun 08 06:55 Calm 10 Clear   61 59     93%     29.91        
Notice The following observation data may not be complete
Jun 08 06:35   10 Clear            %              
Notice The following observation data may not be complete
Jun 07 18:35   10 Clear            %              
Jun 07 14:55 N 10 10 Clear   83 59     43%   83 29.8        
Notice The following observation data may not be complete
Jun 07 10:15   10 Clear            %              
Jun 06 14:35 NE 10 10 Clear   76 68     77%   77 29.74        
Jun 06 13:35 NW 6 10 Clear   81 71     70%   85 29.73        
Jun 06 10:15 NNW 5 10 Clear   76 73     88%   78 29.77        
Jun 06 09:55 N 3 10 Clear   76 73     92%   77 29.77        
Jun 05 16:35 WSW 3 10 Clear   78 71     78%   79 29.75